Regional Weather Roundup
Issued by NWS

Home | Current Version | Previous Version | Text Only | Print | Product List | Glossary On
Versions: 1 2 3 4 5 6 7 8 9 10 11 12 13 14 15 16 17 18 19 20 21 22 23 24 25 26 27 28 29 30 31 32 33 34 35 36 37 38 39 40 41 42 43 44
000
ASUS45 KBOU 021207
RWRCO

WEATHER ROUNDUP FOR COLORADO
NATIONAL WEATHER SERVICE DENVER/BOULDER CO
600 AM MDT THU OCT 02 2014

NOTE: "FAIR" INDICATES FEW OR NO CLOUDS BELOW 12000 FEET WITH NO
SIGNIFICANT WEATHER AND/OR OBSTRUCTIONS TO VISIBILITY.

COZ001>005-013-030-031-021300-
...NORTHWEST COLORADO...

CITY           SKY/WX    TMP DP  RH WIND       PRES   REMARKS
CRAIG          CLEAR     32  28  85 CALM      30.26R
HAYDEN         PTCLDY    34  30  86 CALM      30.26R
MEEKER         CLOUDY    34  33  96 CALM      30.27R
MOUNT WERNER   NOT AVBL
STEAMBOAT SPGS CLOUDY    34  33  95 SW3       30.26R
WALDEN         CLEAR     28  27  93 S3        30.22R
$$

COZ006>008-011-021300-
...WEST CENTRAL VALLEYS...

CITY           SKY/WX    TMP DP  RH WIND       PRES   REMARKS
GRAND JUNCTION CLEAR     37  35  92 NE6       30.24R
MONTROSE       CLOUDY    39  37  92 W3        30.30R
EAGLE          CLOUDY    36  36 100 CALM      30.29R
RIFLE          PTCLDY    37  35  92 S3        30.26R
DELTA          FLURRIES  40  37  91 E6        30.26R
NUCLA          PTCLDY    37  32  81 CALM      30.28S
$$

COZ017>023-064>068-021300-
...SOUTHWEST COLORADO...

CITY           SKY/WX    TMP DP  RH WIND       PRES   REMARKS
DURANGO        CLEAR     42  23  46 VRB3      30.16R
CORTEZ         CLEAR     41  31  67 N7        30.22R
PAGOSA SPRINGS CLEAR     35  25  68 N3        30.19R
TELLURIDE      PTCLDY   N/A N/A N/A CALM      30.27R
WOLF CREEK PAS CLEAR     19  16  86 NE25      30.25R WCI   2
$$

COZ009-010-012-014-032>034-037-058>063-021300-
...CENTRAL COLORADO...

CITY           SKY/WX    TMP DP  RH WIND       PRES   REMARKS
ASPEN          MOCLDY    34  31  88 CALM      30.26R
BUENA VISTA    PTCLDY    35  23  61 CALM      30.21R
COPPER MTN     CLOUDY    23  18  80 W24       30.26R WCI   7
BERTHOUD PASS  CLOUDY    16  12  86 NW29G36   30.24R WCI  -4
COTTONWOOD PAS PTCLDY    32  18  55 W7G21     30.23R WCI  26
GUNNISON       CLEAR     34  28  80 CALM      30.26R
KREMMLING      CLOUDY    34  32  93 CALM      30.26R
LEADVILLE      FLURRIES  25  19  78 N9        30.24R WCI  15
MONARCH PASS     N/A     19  18  93 MISG      30.36R
SALIDA         PTCLDY    38  26  60 NW9       30.27R
SUNLIGHT       FOG      N/A N/A N/A CALM      30.32R VSB 3/4
WILKERSON PASS NOT AVBL
$$

COZ069>075-021300-
...SAN LUIS VALLEY/SANGRE DE CRISTO MOUNTAINS...

CITY           SKY/WX    TMP DP  RH WIND       PRES   REMARKS
ALAMOSA        LGT RAIN  40  23  50 NW17      30.17R
LA VETA PASS   FOG       30  28  93 CALM      30.20R VSB 1/2
SAGUACHE       PTCLDY    34  27  75 NW17G23   30.20R WCI  23
$$

COZ035-036-038>040-021300-
...NORTHERN COLORADO FRONT RANGE...

CITY           SKY/WX    TMP DP  RH WIND       PRES   REMARKS
DENVER INTL AP PTCLDY    39  36  89 SW6       30.13R
DMNS CITY PARK   N/A     39  37  93 S2        30.13R
AURORA         PTCLDY    38  38  99 S5        30.14R
FRONT RANGE AP CLEAR     41  37  87 SW6       30.14R
ERIE MUNI ARPT CLEAR     37  37 100 CALM      30.13R
BOULDER MUN AP CLEAR     39  37  93 S3        30.12S
CENTENNIAL     CLEAR     35  34  96 CALM      30.13R
BROOMFIELD     DRIZZLE   41  39  93 CALM      30.14R
FORT COLLINS   CLEAR     39  36  87 E6        30.14R
LONGMONT       CLEAR     38  36  92 SW6       30.14S
$$

COZ041-046-047-076>085-087-088-021300-
...PIKES PEAK/PALMER DIVIDE AND SOUTHERN FOOTHILLS...

CITY           SKY/WX    TMP DP  RH WIND       PRES   REMARKS
COLO. SPRINGS  MOCLDY    41  32  70 N12       30.13R
A. F. ACADEMY  PTCLDY    34  31  88 N8        30.13R WCI  27
ELLICOTT       NOT AVBL
FALCON         MOCLDY    37  33  87 N9        30.15R
FORT CARSON    MOCLDY    42  33  71 NW5       30.11R
LIMON          MOCLDY    41  39  93 NW17      30.10R
MONUMENT HILL  PTCLDY    32  32 100 NW6       30.13S WCI  26
TRINIDAD       CLOUDY    44  35  70 NW6       30.14R
$$

COZ042>045-048>051-090-091-021300-
...NORTHEAST COLORADO...

CITY           SKY/WX    TMP DP  RH WIND       PRES   REMARKS
GREELEY ARPT   CLEAR     37  30  75 N5        30.13S
AKRON          PTCLDY    40  39  97 NW9       30.09R
BURLINGTON     PTCLDY    44  42  93 NW13      30.05R
WRAY           PTCLDY    45  45 100 NW7       30.05R
STERLING       PTCLDY    45  43  93 N10       30.08R
HOLYOKE        PTCLDY    46  43  87 NW9       30.06R
FORT MORGAN    PTCLDY    41  38  89 NW8       30.12R
$$

COZ086-089-092>099-021300-
...SOUTHEAST COLORADO...

CITY           SKY/WX    TMP DP  RH WIND       PRES   REMARKS
PUEBLO         CLOUDY    48  36  63 SW10      30.11R
LA JUNTA       CLOUDY    49  39  68 W8        30.09R
LAMAR          MOCLDY    49  41  74 N8        30.04R
SPRINGFIELD      N/A     45  40  82 NW14      30.05R
$$


USA.gov is the U.S. government's official web portal to all federal, state and local government web resources and services.